KJ4I-W Weather Reports


Display with metric or nautical units.
time (UTC)temp
F
wind
direction
speed
MPH
gust
MPH
rain 1hr
in
rain 24hr
in
rain mn
in
humidity
%
barometer
mb
20260906073024 76 304 0.0 0.0 0.00 0.00 0.00 86 1011.8
20260906071520 76 303 0.0 0.0 0.00 0.00 0.00 86 1011.6
20260906070017 76 304 0.0 0.0 0.00 0.00 0.00 86 1011.7
20260906064517 77 304 0.0 0.0 0.00 0.00 0.00 85 1011.7
20260906063013 77 303 0.0 0.0 0.00 0.00 0.00 85 1011.7
20260906061512 77 304 0.0 0.0 0.00 0.00 0.00 84 1011.7
20260906060018 77 303 0.0 0.0 0.00 0.00 0.00 84 1011.5
20260906054507 78 304 0.0 0.0 0.00 0.00 0.00 83 1011.5
20260906053016 78 303 0.0 0.0 0.00 0.00 0.00 83 1011.6
20260906051504 78 304 0.0 0.0 0.00 0.00 0.00 82 1011.6
20260906050002 79 303 0.0 0.0 0.00 0.00 0.00 81 1011.8
20260906044600 79 304 0.0 0.0 0.00 0.00 0.00 81 1012.0
20260906043100 80 304 0.0 0.0 0.00 0.00 0.00 80 1012.3
20260906041600 80 304 0.0 0.0 0.00 0.00 0.00 80 1012.2
20260906040059 81 303 0.0 0.0 0.00 0.00 0.00 79 1012.3
20260906034559 81 304 0.0 0.0 0.00 0.00 0.00 79 1012.0
20260906033101 81 304 0.0 0.0 0.00 0.00 0.00 78 1012.0
20260906031601 82 304 0.0 0.0 0.00 0.00 0.00 77 1012.0
20260906030057 82 303 0.0 0.0 0.00 0.00 0.00 77 1012.1
20260906024556 82 123 0.0 0.0 0.00 0.00 0.00 77 1012.0
20260906023055 83 123 0.0 1.0 0.00 0.00 0.00 76 1011.9
20260906021559 83 123 0.0 0.0 0.00 0.00 0.00 74 1011.7
20260906020056 84 123 0.0 0.0 0.00 0.00 0.00 73 1011.3
20260906014605 84 123 0.0 0.0 0.00 0.00 0.00 72 1011.1
20260906013054 85 123 0.0 0.0 0.00 0.00 0.00 71 1010.9
20260906011606 86 122 0.0 0.0 0.00 0.00 0.00 69 1010.6
20260906010053 87 117 0.0 0.0 0.00 0.00 0.00 67 1010.3
20260906004552 88 117 0.0 0.0 0.00 0.00 0.00 65 1010.4
20260906003052 89 117 0.0 0.0 0.00 0.00 0.00 65 1010.2
20260906001559 90 117 0.0 0.0 0.00 0.00 0.00 63 1010.2
20260906000052 91 117 0.0 0.0 0.00 0.00 0.00 61 1010.2
20260905234551 92 117 0.0 0.0 0.00 0.00 0.00 61 1010.2
20260905233106 93 117 0.0 0.0 0.00 0.00 0.00 58 1010.2
20260905231555 93 117 0.0 0.0 0.00 0.00 0.00 56 1010.1
20260905230050 94 117 0.0 2.0 0.00 0.00 0.00 54 1010.1
20260905224607 94 120 0.0 0.0 0.00 0.00 0.00 53 1009.9
20260905223053 95 104 0.0 0.0 0.00 0.00 0.00 51 1010.0
20260905221547 95 104 0.0 1.0 0.00 0.00 0.00 51 1010.1
20260905220050 96 105 0.0 1.0 0.00 0.00 0.00 53 1010.2
20260905214545 96 105 0.0 3.0 0.00 0.00 0.00 51 1010.3
20260905213044 96 119 0.0 4.0 0.00 0.00 0.00 49 1010.4
20260905211543 96 126 0.0 0.0 0.00 0.00 0.00 50 1010.5
20260905210042 95 67 0.0 0.0 0.00 0.00 0.00 48 1010.8
20260905204539 96 103 0.0 2.0 0.00 0.00 0.00 52 1010.9
20260905203040 97 104 0.0 6.0 0.00 0.00 0.00 51 1011.2
20260905201538 97 106 1.0 4.0 0.00 0.00 0.00 49 1011.2
20260905200035 97 290 0.0 6.0 0.00 0.00 0.00 48 1011.2
20260905194532 97 95 1.0 7.0 0.00 0.00 0.00 49 1011.5
20260905193031 97 102 0.0 3.0 0.00 0.00 0.00 49 1011.6
20260905191528 97 81 2.0 7.0 0.00 0.00 0.00 48 1011.8
20260905190030 97 300 0.0 8.0 0.00 0.00 0.00 50 1011.9
20260905184523 97 169 1.0 5.0 0.00 0.00 0.00 52 1012.2
20260905183019 96 64 1.0 5.0 0.00 0.00 0.00 52 1012.3
20260905181515 95 90 0.0 7.0 0.00 0.00 0.00 53 1012.4
20260905180012 95 109 0.0 5.0 0.00 0.00 0.00 55 1012.8
20260905174512 93 90 1.0 3.0 0.00 0.00 0.00 55 1013.0
20260905173008 93 109 1.0 3.0 0.00 0.00 0.00 58 1013.2
20260905171601 92 350 0.0 4.0 0.00 0.00 0.00 58 1013.4
20260905170111 92 265 0.0 3.0 0.00 0.00 0.00 62 1013.6
20260905164558 91 175 0.0 7.0 0.00 0.00 0.00 61 1013.8
20260905163055 91 109 1.0 3.0 0.00 0.00 0.00 62 1014.0
20260905161554 90 136 0.0 2.0 0.00 0.00 0.00 65 1014.2
20260905160049 88 263 0.0 3.0 0.00 0.00 0.00 68 1014.2
20260905154545 87 286 0.0 6.0 0.00 0.00 0.00 69 1014.3
20260905153042 86 285 0.0 0.0 0.00 0.00 0.00 75 1014.2
20260905151538 84 319 0.0 0.0 0.00 0.00 0.00 79 1014.3
20260905150035 83 87 0.0 0.0 0.00 0.00 0.00 82 1014.4
20260905144529 82 87 0.0 0.0 0.00 0.00 0.00 85 1014.4
20260905143030 81 87 0.0 0.0 0.00 0.00 0.00 88 1014.2
20260905141522 80 87 0.0 0.0 0.00 0.00 0.00 90 1014.4
20260905140018 78 87 0.0 0.0 0.00 0.00 0.00 92 1014.4
20260905134518 77 111 0.0 0.0 0.00 0.00 0.00 95 1014.6
20260905133017 76 111 0.0 0.0 0.00 0.00 0.00 96 1014.5
20260905131521 74 111 0.0 0.0 0.00 0.00 0.00 95 1014.6
20260905130006 73 111 0.0 0.0 0.00 0.00 0.00 94 1014.6
20260905124503 73 111 0.0 0.0 0.00 0.00 0.00 93 1014.6
20260905123110 73 111 0.0 0.0 0.00 0.00 0.00 93 1014.5
20260905121557 72 111 0.0 0.0 0.00 0.00 0.00 92 1014.4
20260905120055 72 111 0.0 0.0 0.00 0.00 0.00 92 1014.3
20260905114553 73 111 0.0 0.0 0.00 0.00 0.00 91 1014.1
20260905113100 73 111 0.0 0.0 0.00 0.00 0.00 91 1014.0
20260905111556 73 111 0.0 0.0 0.00 0.00 0.00 91 1013.6
20260905110049 73 111 0.0 0.0 0.00 0.00 0.00 91 1013.3
20260905104546 73 111 0.0 0.0 0.00 0.00 0.00 91 1013.1
20260905103044 73 111 0.0 0.0 0.00 0.00 0.00 90 1013.4
20260905101547 73 111 0.0 0.0 0.00 0.00 0.00 90 1013.4
20260905100042 74 111 0.0 0.0 0.00 0.00 0.00 90 1013.5
20260905094540 74 111 0.0 0.0 0.00 0.00 0.00 90 1013.3
20260905093038 74 111 0.0 0.0 0.00 0.00 0.00 90 1013.3
20260905091538 74 111 0.0 0.0 0.00 0.00 0.00 89 1013.0
20260905090037 74 111 0.0 0.0 0.00 0.00 0.00 89 1012.8
20260905084556 75 111 0.0 0.0 0.00 0.00 0.00 89 1012.8
20260905083031 75 111 0.0 0.0 0.00 0.00 0.00 88 1012.9
20260905081529 75 111 0.0 0.0 0.00 0.00 0.00 88 1013.1
20260905080028 75 111 0.0 0.0 0.00 0.00 0.00 88 1013.0
20260905074528 76 111 0.0 0.0 0.00 0.00 0.00 88 1013.0